Oklahoma City Wiley Post, OK

9:45 PM CDT on May 26, 2017 (GMT -0500)
Wiley Post

Weather History for KPWA - September, 2013

Change the Weather History Date:

Wednesday, September 18, 2013

  Actual Average Record
Temperature  
Mean Temperature 82 °F -  
Max Temperature 91 °F 78 °F 98 °F (1952)
Min Temperature 72 °F 62 °F 48 °F (1971)
Cooling Degree Days 16    
Growing Degree Days 32 (Base 50)    
Moisture  
Dew Point 63 °F    
Average Humidity 57    
Maximum Humidity 81    
Minimum Humidity 32    
Precipitation  
Precipitation 0.01 in - - ()
Sea Level Pressure  
Sea Level Pressure 29.90 in    
Wind  
Wind Speed 12 mph (South)    
Max Wind Speed 21 mph    
Max Gust Speed 32 mph    
Visibility 8 miles    
Events      
Averages and records for this station are not official NWS values.
T = Trace of Precipitation, MM = Missing Value Source: NWS Daily Summary

Daily Weather History Graph

Daily Weather History Graph

Search for Another Location

Airport or City:

Trip Planner

Search our weather history database for the weather conditions in past years. The results will help you decide how hot, cold, wet, or windy it might be!

Date:

Astronomy

Sep. 18, 2013 Rise Set
Actual Time 7:15 AM CDT 7:32 PM CDT
Civil Twilight 6:50 AM CDT 7:58 PM CDT
Nautical Twilight 6:20 AM CDT 8:28 PM CDT
Astronomical Twilight 5:50 AM CDT 8:58 PM CDT
Moon 6:57 PM CDT (9/18) 6:20 AM CDT (9/18)
Length of Visible Light 13h 08m
Length of Day
12h 17m
Waxing Gibbous, 99% of the Moon is Illuminated
Sep 18
Waxing Gibbous
Sep 19
Full
Sep 26
Last Quarter
Oct 4
New
Oct 11
First Quarter

Hourly Weather History & Observations

Time (CDT) Temp. Heat Index Dew Point Humidity Pressure Visibility Wind Dir Wind Speed Gust Speed Precip Events Conditions
12:53 AM 73.9 °F - 64.9 °F 73% 29.95 in 9.0 mi SSE 13.8 mph - N/A   Clear
1:53 AM 73.9 °F - 64.9 °F 73% 29.94 in 9.0 mi SSE 11.5 mph - N/A   Clear
2:53 AM 73.0 °F - 64.9 °F 76% 29.94 in 8.0 mi South 10.4 mph - N/A   Clear
3:53 AM 72.0 °F - 66.0 °F 81% 29.92 in 8.0 mi South 6.9 mph - N/A   Clear
4:53 AM 73.0 °F - 64.9 °F 76% 29.91 in 8.0 mi South 6.9 mph - N/A   Clear
5:53 AM 73.0 °F - 64.9 °F 76% 29.91 in 8.0 mi South 9.2 mph - N/A   Clear
6:53 AM 72.0 °F - 66.0 °F 81% 29.92 in 7.0 mi South 9.2 mph - N/A   Clear
7:53 AM 73.0 °F - 66.0 °F 79% 29.94 in 5.0 mi South 10.4 mph - N/A   Haze
8:53 AM 75.0 °F - 66.0 °F 73% 29.95 in 6.0 mi South 10.4 mph - N/A   Haze
9:53 AM 78.1 °F - 66.0 °F 66% 29.96 in 6.0 mi South 10.4 mph - N/A   Haze
10:53 AM 81.0 °F 83.0 °F 66.0 °F 60% 29.96 in 8.0 mi South 11.5 mph - N/A   Clear
11:53 AM 82.9 °F 85.0 °F 66.0 °F 56% 29.95 in 8.0 mi SW 13.8 mph 18.4 mph N/A   Clear
12:53 PM 87.1 °F 88.3 °F 64.0 °F 46% 29.92 in 9.0 mi SSW 17.3 mph - N/A   Clear
1:53 PM 89.1 °F 91.0 °F 64.9 °F 45% 29.90 in 10.0 mi South 18.4 mph - 0.01 in   Clear
2:53 PM 91.0 °F 90.9 °F 61.0 °F 36% 29.87 in 10.0 mi SSW 20.7 mph 32.2 mph N/A   Clear
3:53 PM 91.9 °F 91.5 °F 60.1 °F 34% 29.85 in 10.0 mi SSW 17.3 mph 27.6 mph N/A   Clear
4:53 PM 91.9 °F 90.8 °F 57.9 °F 32% 29.84 in 10.0 mi SSW 19.6 mph 25.3 mph N/A   Clear
5:53 PM 90.0 °F 88.8 °F 57.9 °F 34% 29.83 in 10.0 mi SSW 15.0 mph - N/A   Clear
6:53 PM 87.1 °F 86.7 °F 60.1 °F 40% 29.83 in 9.0 mi South 11.5 mph - N/A   Clear
7:53 PM 82.9 °F 82.6 °F 57.9 °F 42% 29.83 in 10.0 mi South 10.4 mph - N/A   Clear
8:53 PM 82.0 °F 82.1 °F 59.0 °F 45% 29.85 in 9.0 mi South 9.2 mph - N/A   Clear
9:53 PM 82.9 °F 82.6 °F 57.9 °F 42% 29.86 in 9.0 mi SSE 13.8 mph - N/A   Clear
10:53 PM 82.9 °F 83.3 °F 61.0 °F 47% 29.86 in 9.0 mi SSE 17.3 mph 23.0 mph N/A   Clear
11:53 PM 80.1 °F 81.5 °F 63.0 °F 56% 29.86 in 7.0 mi SSE 15.0 mph - N/A   Clear